TimeMDT,TemperatureF,Dew PointF,Humidity,Sea Level PressureIn,VisibilityMPH,Wind Direction,Wind SpeedMPH,Gust SpeedMPH,PrecipitationIn,Events,Conditions,WindDirDegrees,DateUTC
12:15 AM,41.2,37.2,86,30.00,10.0,WSW,9.2,-,N/A,,Clear,250,2012-10-30 06:15:00
12:35 AM,41.2,37.0,85,30.00,10.0,WSW,6.9,-,N/A,,Clear,250,2012-10-30 06:35:00
12:55 AM,41.9,37.2,83,30.00,10.0,WSW,3.5,-,N/A,,Clear,250,2012-10-30 06:55:00
1:55 AM,38.5,35.4,89,30.00,10.0,West,5.8,-,N/A,,Clear,270,2012-10-30 07:55:00
2:15 AM,37.6,34.9,90,30.00,10.0,Calm,Calm,-,N/A,,Clear,0,2012-10-30 08:15:00
2:55 AM,37.4,35.1,91,29.99,10.0,WSW,8.1,-,N/A,,Clear,240,2012-10-30 08:55:00
3:15 AM,38.7,35.4,88,29.99,10.0,WSW,4.6,-,N/A,,Clear,240,2012-10-30 09:15:00
3:35 AM,39.6,36.0,87,29.99,10.0,Calm,Calm,-,N/A,,Clear,0,2012-10-30 09:35:00
3:55 AM,41.5,36.1,81,29.99,10.0,WSW,4.6,-,N/A,,Clear,250,2012-10-30 09:55:00
4:15 AM,47.3,39.0,73,29.98,10.0,NW,16.1,21.9,N/A,,Clear,320,2012-10-30 10:15:00
4:35 AM,51.1,39.2,64,29.98,10.0,NNW,20.7,-,N/A,,Clear,330,2012-10-30 10:35:00
4:55 AM,50.4,38.8,65,29.98,10.0,NNW,24.2,29.9,N/A,,Clear,330,2012-10-30 10:55:00
5:15 AM,50.4,38.7,64,29.99,10.0,NNW,24.2,-,N/A,,Clear,330,2012-10-30 11:15:00
5:35 AM,50.2,38.8,65,30.00,10.0,NNW,16.1,-,N/A,,Clear,330,2012-10-30 11:35:00
5:55 AM,49.5,38.7,66,30.01,10.0,NNW,15.0,-,N/A,,Clear,330,2012-10-30 11:55:00
6:15 AM,48.4,38.5,69,30.01,10.0,NW,9.2,-,N/A,,Clear,320,2012-10-30 12:15:00
6:35 AM,46.4,37.8,72,30.02,10.0,WSW,4.6,-,N/A,,Clear,240,2012-10-30 12:35:00
6:55 AM,45.9,37.6,73,30.02,10.0,Calm,Calm,-,N/A,,Clear,0,2012-10-30 12:55:00
7:35 AM,47.5,38.1,70,30.02,10.0,NW,23.0,-,N/A,,Clear,320,2012-10-30 13:35:00
7:55 AM,48.4,38.3,68,30.04,10.0,NNW,20.7,-,N/A,,Clear,330,2012-10-30 13:55:00
8:15 AM,50.2,38.8,65,30.04,10.0,NNW,18.4,-,N/A,,Clear,330,2012-10-30 14:15:00
8:35 AM,52.2,39.2,61,30.04,10.0,NNW,19.6,-,N/A,,Clear,330,2012-10-30 14:35:00
8:55 AM,53.6,38.8,57,30.05,10.0,NNW,21.9,25.3,N/A,,Clear,330,2012-10-30 14:55:00
9:15 AM,55.2,38.7,54,30.05,10.0,NNW,18.4,23.0,N/A,,Clear,330,2012-10-30 15:15:00
9:35 AM,56.7,38.5,51,30.06,10.0,NNW,17.3,-,N/A,,Clear,330,2012-10-30 15:35:00
9:55 AM,58.3,38.5,48,30.07,10.0,NNW,16.1,-,N/A,,Clear,330,2012-10-30 15:55:00
10:15 AM,60.8,38.7,44,30.07,10.0,NNW,13.8,17.3,N/A,,Clear,330,2012-10-30 16:15:00
10:35 AM,62.2,38.7,42,30.08,10.0,NW,8.1,-,N/A,,Clear,310,2012-10-30 16:35:00
10:55 AM,63.9,38.7,39,30.09,10.0,WNW,5.8,-,N/A,,Clear,290,2012-10-30 16:55:00
11:15 AM,65.5,38.3,37,30.09,10.0,WNW,3.5,-,N/A,,Clear,290,2012-10-30 17:15:00
11:35 AM,66.9,38.1,35,30.08,10.0,West,3.5,-,N/A,,Clear,260,2012-10-30 17:35:00
11:55 AM,67.5,37.0,33,30.07,10.0,Calm,Calm,-,N/A,,Clear,0,2012-10-30 17:55:00
12:15 PM,69.1,36.7,30,30.06,10.0,North,4.6,-,N/A,,Clear,350,2012-10-30 18:15:00
12:35 PM,69.8,35.4,28,30.06,10.0,NNE,4.6,-,N/A,,Clear,20,2012-10-30 18:35:00
12:55 PM,69.6,35.6,29,30.05,10.0,NNE,3.5,-,N/A,,Clear,20,2012-10-30 18:55:00
1:15 PM,70.7,35.8,28,30.04,10.0,WNW,4.6,-,N/A,,Clear,300,2012-10-30 19:15:00
1:35 PM,70.9,35.4,27,30.03,10.0,NNW,4.6,-,N/A,,Clear,330,2012-10-30 19:35:00
1:55 PM,72.1,35.4,26,30.02,10.0,NNW,4.6,-,N/A,,Clear,340,2012-10-30 19:55:00
2:15 PM,71.8,33.8,25,30.02,7.0,NNE,4.6,-,N/A,,Clear,20,2012-10-30 20:15:00
2:35 PM,71.6,33.6,25,30.01,10.0,Calm,Calm,-,N/A,,Clear,0,2012-10-30 20:35:00
2:55 PM,72.5,32.9,23,30.01,10.0,Calm,Calm,-,N/A,,Clear,0,2012-10-30 20:55:00
3:15 PM,72.5,33.3,24,30.01,10.0,North,5.8,-,N/A,,Clear,360,2012-10-30 21:15:00
3:35 PM,72.5,33.1,24,30.01,10.0,ENE,5.8,-,N/A,,Clear,70,2012-10-30 21:35:00
3:55 PM,72.5,33.6,24,30.01,10.0,Calm,Calm,-,N/A,,Clear,0,2012-10-30 21:55:00
4:15 PM,71.8,33.4,24,30.01,10.0,Calm,Calm,-,N/A,,Clear,0,2012-10-30 22:15:00
4:35 PM,71.6,33.8,25,30.01,10.0,ESE,3.5,-,N/A,,Clear,110,2012-10-30 22:35:00
4:55 PM,70.5,34.0,26,30.01,10.0,Calm,Calm,-,N/A,,Clear,0,2012-10-30 22:55:00
5:15 PM,69.1,34.7,28,30.01,10.0,Calm,Calm,-,N/A,,Clear,0,2012-10-30 23:15:00
5:35 PM,67.3,35.4,31,30.01,7.0,Calm,Calm,-,N/A,,Clear,0,2012-10-30 23:35:00
5:55 PM,64.8,34.7,33,30.01,10.0,Calm,Calm,-,N/A,,Clear,0,2012-10-30 23:55:00
6:15 PM,58.3,34.7,41,30.01,4.0,Calm,Calm,-,N/A,,Haze,0,2012-10-31 00:15:00
6:35 PM,57.7,34.7,42,30.01,1.5,Calm,Calm,-,N/A,,Haze,0,2012-10-31 00:35:00
6:55 PM,54.3,35.6,49,30.01,10.0,Calm,Calm,-,N/A,,Clear,0,2012-10-31 00:55:00
7:15 PM,53.4,36.3,52,30.02,10.0,Calm,Calm,-,N/A,,Clear,0,2012-10-31 01:15:00
7:35 PM,50.0,36.1,59,30.02,10.0,Calm,Calm,-,N/A,,Clear,0,2012-10-31 01:35:00
7:55 PM,48.7,36.0,61,30.02,10.0,Calm,Calm,-,N/A,,Clear,0,2012-10-31 01:55:00
8:15 PM,46.4,35.6,66,30.02,10.0,Calm,Calm,-,N/A,,Clear,0,2012-10-31 02:15:00
8:35 PM,47.7,35.8,63,30.02,10.0,Calm,Calm,-,N/A,,Clear,0,2012-10-31 02:35:00
8:55 PM,43.3,34.5,71,30.03,10.0,Calm,Calm,-,N/A,,Clear,0,2012-10-31 02:55:00
9:15 PM,45.3,35.8,69,30.04,10.0,Calm,Calm,-,N/A,,Clear,0,2012-10-31 03:15:00
9:35 PM,43.9,34.5,70,30.04,10.0,Calm,Calm,-,N/A,,Clear,0,2012-10-31 03:35:00
9:55 PM,43.3,34.5,71,30.04,10.0,Calm,Calm,-,N/A,,Clear,0,2012-10-31 03:55:00
10:15 PM,40.8,34.0,77,30.04,10.0,West,4.6,-,N/A,,Clear,260,2012-10-31 04:15:00
10:35 PM,43.2,34.7,72,30.04,10.0,Calm,Calm,-,N/A,,Clear,0,2012-10-31 04:35:00
10:55 PM,42.3,33.8,72,30.04,10.0,Calm,Calm,-,N/A,,Clear,0,2012-10-31 04:55:00
11:15 PM,38.5,33.1,81,30.04,10.0,Calm,Calm,-,N/A,,Clear,0,2012-10-31 05:15:00
11:35 PM,37.9,32.0,79,30.04,10.0,WNW,3.5,-,N/A,,Clear,290,2012-10-31 05:35:00
11:55 PM,39.4,33.1,78,30.04,10.0,Calm,Calm,-,N/A,,Clear,0,2012-10-31 05:55:00